Location: Libas
(9.8833°N, 125.9833°E)
Time: 21:22:44
(UTC+00:00)

Meteor 2-5 Rocket - Pass Details

Date: 27 October 2020
Orbit: 834 x 911 km, 81.2° (Epoch: 25 November)

Event Time Altitude Azimuth Distance (km) Brightness Sun altitude
Rises 19:36:26 0° 182° (S) 3,383 6.9 -27.2°
Reaches altitude 10° 19:38:49 10° 180° (S) 2,455 6.2 -26.6°
Maximum altitude 19:44:23 78° 95° (E) 872 3.8 -25.3°
Drops below altitude 10° 19:50:02 10° 9° (N) 2,500 6.1 -23.9°
Sets 19:52:29 0° 8° (N) 3,448 6.9 -23.3°
